GW0890 Weather Reports


Display with metric or nautical units.
time (UTC)temp
F
wind
direction
speed
MPH
gust
MPH
rain 1hr
in
rain 24hr
in
rain mn
in
humidity
%
barometer
mb
20260506120031 58 97 0.0 0.0 0.02 0.35 0.35 96 1006.1
20260506114539 58 97 0.0 0.0 0.04 0.35 0.35 96 1006.0
20260506113028 58 98 0.0 0.0 0.04 0.34 0.34 96 1005.5
20260506111530 58 108 0.0 0.0 0.04 0.34 0.34 95 1005.5
20260506110029 58 108 0.0 0.0 0.03 0.33 0.33 95 1005.7
20260506104526 58 108 0.0 5.0 0.01 0.31 0.31 95 1005.6
20260506103024 59 117 1.0 4.0 0.01 0.30 0.30 95 1005.5
20260506101526 59 150 2.0 6.0 0.04 0.30 0.30 94 1005.1
20260506100022 59 106 1.0 5.0 0.07 0.30 0.30 94 1004.7
20260506094522 59 56 0.0 2.0 0.09 0.30 0.30 93 1004.2
20260506093018 59 57 1.0 4.0 0.08 0.28 0.28 93 1004.5
20260506091517 59 5 4.0 7.0 0.04 0.25 0.25 92 1004.5
20260506090015 59 81 2.0 7.0 0.04 0.23 0.23 92 1004.7
20260506084516 59 298 4.0 9.0 0.12 0.21 0.21 92 1004.5
20260506083012 59 301 6.0 9.0 0.15 0.21 0.21 92 1004.4
20260506081509 59 285 5.0 12.0 0.15 0.21 0.21 91 1004.6
20260506073002 59 308 2.0 8.0 0.03 0.06 0.06 92 1004.8
20260506071600 58 311 3.0 9.0 0.04 0.06 0.06 94 1004.9
20260506070103 58 348 0.0 0.0 0.04 0.05 0.05 95 1005.2
20260506061549 58 46 0.0 0.0 0.02 0.02 0.02 94 1006.2
20260506044544 60 44 0.0 5.0 0.00 0.00 0.00 88 1005.7
20260506043033 61 15 1.0 5.0 0.00 0.00 0.00 85 1005.8
20260506041529 59 58 4.0 12.0 0.00 0.00 0.00 87 1006.1
20260506040048 59 250 0.0 6.0 0.00 0.00 0.00 91 1006.2
20260506034525 59 260 1.0 8.0 0.00 0.00 0.00 89 1006.1
20260506033019 61 207 1.0 6.0 0.00 0.00 0.00 84 1006.4
20260506031533 61 237 1.0 4.0 0.00 0.00 0.00 80 1006.4
20260506030014 62 222 0.0 2.0 0.00 0.00 0.00 76 1006.4
20260506024519 63 222 0.0 4.0 0.00 0.00 0.00 75 1006.5
20260506023012 63 194 3.0 5.0 0.00 0.00 0.00 73 1006.6
20260506021511 64 94 0.0 2.0 0.00 0.00 0.00 70 1006.6
20260506020010 64 94 0.0 2.0 0.00 0.00 0.00 70 1006.5
20260506020008 64 93 0.0 2.0 0.00 0.00 0.00 70 1006.5
20260506014511 65 92 0.0 0.0 0.00 0.00 0.00 69 1006.2
20260506013005 66 90 0.0 2.0 0.00 0.00 0.00 66 1006.4
20260506011502 66 90 0.0 0.0 0.00 0.00 0.00 64 1006.4
20260506010000 67 90 0.0 2.0 0.00 0.00 0.00 63 1006.5
20260506004501 69 83 1.0 3.0 0.00 0.00 0.00 60 1006.4
20260506003100 70 78 2.0 3.0 0.00 0.00 0.00 56 1006.5
20260506003004 70 76 1.0 3.0 0.00 0.00 0.00 56 1006.5
20260506001557 71 74 0.0 2.0 0.00 0.00 0.00 47 1006.7
20260506000101 72 75 1.0 5.0 0.00 0.00 0.00 47 1006.8
20260505234603 72 76 3.0 6.0 0.00 0.00 0.00 46 1007.0
20260505233109 72 46 4.0 8.0 0.00 0.00 0.00 46 1007.1
20260505231555 73 61 4.0 13.0 0.00 0.00 0.00 46 1007.1
20260505230052 73 45 6.0 9.0 0.00 0.00 0.00 46 1007.3
20260505224552 73 46 6.0 11.0 0.00 0.00 0.00 46 1007.3
20260505223054 74 40 4.0 12.0 0.00 0.00 0.00 46 1007.2
20260505221520 74 16 6.0 19.0 0.00 0.00 0.00 45 1007.2
20260505220018 74 22 11.0 16.0 0.00 0.00 0.00 46 1007.2
20260505214514 75 5 5.0 9.0 0.00 0.00 0.00 48 1007.2
20260505213012 75 23 7.0 16.0 0.00 0.00 0.00 48 1007.2
20260505211512 75 349 7.0 12.0 0.00 0.00 0.00 49 1007.3
20260505210010 75 335 4.0 11.0 0.00 0.00 0.00 50 1007.4
20260505204507 75 44 5.0 15.0 0.00 0.00 0.00 49 1007.5
20260505203006 75 60 7.0 10.0 0.00 0.00 0.00 49 1007.8
20260505201505 75 52 9.0 13.0 0.00 0.00 0.00 49 1007.8
20260505200004 74 48 6.0 14.0 0.00 0.00 0.00 50 1007.9
20260505194501 74 329 5.0 12.0 0.00 0.00 0.00 50 1008.1
20260505193100 74 46 9.0 15.0 0.00 0.00 0.00 49 1008.6
20260505191600 74 24 6.0 14.0 0.00 0.00 0.00 50 1008.8
20260505190059 75 67 8.0 13.0 0.00 0.01 0.00 48 1008.9
20260505184556 75 44 8.0 19.0 0.00 0.01 0.00 50 1009.1
20260505183053 74 11 9.0 19.0 0.00 0.01 0.00 50 1009.3
20260505181557 74 71 7.0 16.0 0.00 0.01 0.00 50 1009.6
20260505180051 74 22 10.0 19.0 0.00 0.01 0.00 48 1009.5
20260505174555 73 30 12.0 21.0 0.00 0.01 0.00 50 1009.7
20260505173048 73 37 10.0 19.0 0.00 0.01 0.00 52 1009.9
20260505171551 74 360 7.0 19.0 0.00 0.01 0.00 51 1009.8
20260505170046 74 42 9.0 20.0 0.00 0.01 0.00 51 1009.9
20260505164556 74 19 11.0 21.0 0.00 0.01 0.00 50 1009.8
20260505163051 74 339 8.0 15.0 0.00 0.01 0.00 53 1009.6
20260505161539 74 345 9.0 22.0 0.00 0.01 0.00 52 1010.0
20260505153029 73 61 9.0 21.0 0.00 0.01 0.00 54 1010.3
20260505151526 72 73 9.0 15.0 0.00 0.01 0.00 54 1010.2
20260505124538 67 59 7.0 13.0 0.00 0.01 0.00 59 1010.4
20260505123029 66 306 6.0 10.0 0.00 0.01 0.00 61 1010.4
20260505121529 65 24 5.0 9.0 0.00 0.01 0.00 61 1010.2